Time,TemperatureF,DewpointF,PressureIn,WindDirection,WindDirectionDegrees,WindSpeedMPH,WindSpeedGustMPH,Humidity,HourlyPrecipIn,Conditions,Clouds,dailyrainin,SoftwareType,DateUTC
2013-02-01 00:02:00,26.0,21.0,27.15,SW,219,8.0,10.0,84,0.00,,,-99.99,,2013-02-01 06:02:00,
2013-02-01 00:07:00,26.0,21.0,27.15,SSW,210,8.0,10.0,83,0.00,,,-99.99,,2013-02-01 06:07:00,
2013-02-01 00:12:00,26.0,21.0,27.14,SW,234,9.0,11.0,84,0.00,,,-99.99,,2013-02-01 06:12:00,
2013-02-01 00:17:00,26.0,21.0,27.14,SW,234,10.0,12.0,84,0.00,,,-99.99,,2013-02-01 06:17:00,
2013-02-01 00:27:00,26.0,23.0,27.15,SW,227,9.0,11.0,85,0.00,,,-99.99,,2013-02-01 06:27:00,
2013-02-01 00:32:00,26.0,23.0,27.15,WSW,237,9.0,11.0,85,0.00,,,-99.99,,2013-02-01 06:32:00,
2013-02-01 00:37:00,26.0,23.0,27.14,SW,230,9.0,11.0,85,0.00,,,-99.99,,2013-02-01 06:37:00,
2013-02-01 00:42:00,26.0,23.0,27.14,SW,231,9.0,11.0,85,0.00,,,-99.99,,2013-02-01 06:42:00,
2013-02-01 00:47:00,26.0,23.0,27.14,SW,235,10.0,13.0,85,0.00,,,-99.99,,2013-02-01 06:47:00,
2013-02-01 00:57:00,26.0,23.0,27.14,WSW,243,10.0,14.0,86,0.00,,,-99.99,,2013-02-01 06:57:00,
2013-02-01 01:02:00,26.0,23.0,27.14,WSW,240,10.0,14.0,87,0.00,,,-99.99,,2013-02-01 07:02:00,
2013-02-01 01:07:00,26.0,23.0,27.14,WSW,243,10.0,13.0,87,0.00,,,-99.99,,2013-02-01 07:07:00,
2013-02-01 01:12:00,26.0,23.0,27.14,WSW,240,8.0,12.0,86,0.00,,,-99.99,,2013-02-01 07:12:00,
2013-02-01 01:17:00,26.0,23.0,27.13,SW,234,9.0,12.0,87,0.00,,,-99.99,,2013-02-01 07:17:00,
2013-02-01 01:22:00,26.0,23.0,27.13,WSW,237,11.0,13.0,87,0.00,,,-99.99,,2013-02-01 07:22:00,
2013-02-01 01:27:00,26.0,23.0,27.13,WSW,245,10.0,13.0,88,0.00,,,-99.99,,2013-02-01 07:27:00,
2013-02-01 01:32:00,26.0,23.0,27.12,WSW,250,10.0,13.0,88,0.00,,,-99.99,,2013-02-01 07:32:00,
2013-02-01 01:37:00,26.0,23.0,27.12,SW,235,9.0,12.0,88,0.00,,,-99.99,,2013-02-01 07:37:00,
2013-02-01 01:42:00,26.0,23.0,27.12,WSW,237,8.0,12.0,88,0.00,,,-99.99,,2013-02-01 07:42:00,
2013-02-01 01:47:00,26.0,23.0,27.12,SW,234,8.0,10.0,87,0.00,,,-99.99,,2013-02-01 07:47:00,
2013-02-01 01:52:00,26.0,23.0,27.12,SW,217,8.0,10.0,88,0.00,,,-99.99,,2013-02-01 07:52:00,
2013-02-01 01:57:00,26.0,23.0,27.12,SW,233,8.0,11.0,88,0.00,,,-99.99,,2013-02-01 07:57:00,
2013-02-01 02:02:00,26.0,23.0,27.11,SW,228,9.0,11.0,88,0.00,,,-99.99,,2013-02-01 08:02:00,
2013-02-01 02:07:00,26.0,23.0,27.11,SW,231,8.0,11.0,88,0.00,,,-99.99,,2013-02-01 08:07:00,
2013-02-01 02:17:00,25.0,23.0,27.11,WSW,238,9.0,12.0,89,0.00,,,-99.99,,2013-02-01 08:17:00,
2013-02-01 02:22:00,24.0,21.0,27.11,WSW,240,10.0,13.0,90,0.00,,,-99.99,,2013-02-01 08:22:00,
2013-02-01 02:27:00,24.0,21.0,27.11,WSW,238,10.0,14.0,90,0.00,,,-99.99,,2013-02-01 08:27:00,
2013-02-01 02:32:00,24.0,21.0,27.11,WSW,245,10.0,14.0,90,0.00,,,-99.99,,2013-02-01 08:32:00,
2013-02-01 02:37:00,23.0,21.0,27.11,WSW,244,10.0,14.0,91,0.00,,,-99.99,,2013-02-01 08:37:00,
2013-02-01 02:42:00,23.0,21.0,27.11,SW,234,11.0,15.0,91,0.00,,,-99.99,,2013-02-01 08:42:00,
2013-02-01 02:47:00,23.0,21.0,27.10,WSW,248,11.0,14.0,91,0.00,,,-99.99,,2013-02-01 08:47:00,
2013-02-01 02:52:00,23.0,21.0,27.10,SW,234,10.0,13.0,91,0.00,,,-99.99,,2013-02-01 08:52:00,
2013-02-01 02:57:00,22.0,19.0,27.10,WSW,238,9.0,13.0,91,0.00,,,-99.99,,2013-02-01 08:57:00,
2013-02-01 03:02:00,22.0,19.0,27.10,SW,233,10.0,14.0,92,0.00,,,-99.99,,2013-02-01 09:02:00,
2013-02-01 03:07:00,22.0,19.0,27.10,WSW,243,10.0,13.0,92,0.00,,,-99.99,,2013-02-01 09:07:00,
2013-02-01 03:12:00,22.0,19.0,27.10,WSW,237,10.0,14.0,92,0.00,,,-99.99,,2013-02-01 09:12:00,
2013-02-01 03:17:00,22.0,19.0,27.11,WSW,241,10.0,15.0,92,0.00,,,-99.99,,2013-02-01 09:17:00,
2013-02-01 03:22:00,22.0,19.0,27.10,WSW,243,10.0,14.0,92,0.00,,,-99.99,,2013-02-01 09:22:00,
2013-02-01 03:27:00,22.0,19.0,27.10,SW,228,11.0,15.0,93,0.00,,,-99.99,,2013-02-01 09:27:00,
2013-02-01 03:32:00,21.0,19.0,27.10,WSW,241,11.0,14.0,93,0.00,,,-99.99,,2013-02-01 09:32:00,
2013-02-01 03:37:00,21.0,19.0,27.10,SW,235,10.0,15.0,93,0.00,,,-99.99,,2013-02-01 09:37:00,
2013-02-01 03:42:00,21.0,19.0,27.10,WSW,237,10.0,13.0,93,0.00,,,-99.99,,2013-02-01 09:42:00,
2013-02-01 03:47:00,21.0,19.0,27.10,SW,223,9.0,11.0,93,0.00,,,-99.99,,2013-02-01 09:47:00,
2013-02-01 03:52:00,21.0,19.0,27.10,WSW,243,9.0,12.0,93,0.00,,,-99.99,,2013-02-01 09:52:00,
2013-02-01 03:57:00,20.0,19.0,27.10,WSW,243,10.0,13.0,94,0.00,,,-99.99,,2013-02-01 09:57:00,
2013-02-01 04:02:00,20.0,19.0,27.10,SW,224,10.0,13.0,94,0.00,,,-99.99,,2013-02-01 10:02:00,
2013-02-01 04:07:00,20.0,19.0,27.09,SW,231,10.0,12.0,94,0.00,,,-99.99,,2013-02-01 10:07:00,
2013-02-01 04:12:00,20.0,19.0,27.09,SW,216,9.0,10.0,94,0.00,,,-99.99,,2013-02-01 10:12:00,
2013-02-01 04:17:00,20.0,19.0,27.09,SW,216,9.0,10.0,94,0.00,,,-99.99,,2013-02-01 10:17:00,
2013-02-01 04:22:00,19.0,18.0,27.09,SW,224,9.0,10.0,94,0.00,,,-99.99,,2013-02-01 10:22:00,
2013-02-01 04:27:00,19.0,18.0,27.09,SW,220,8.0,10.0,94,0.00,,,-99.99,,2013-02-01 10:27:00,
2013-02-01 04:32:00,19.0,18.0,27.09,SW,217,9.0,11.0,95,0.00,,,-99.99,,2013-02-01 10:32:00,
2013-02-01 04:37:00,19.0,18.0,27.09,SSW,212,9.0,12.0,95,0.00,,,-99.99,,2013-02-01 10:37:00,
2013-02-01 04:42:00,19.0,18.0,27.09,SW,214,10.0,13.0,95,0.00,,,-99.99,,2013-02-01 10:42:00,
2013-02-01 04:47:00,20.0,19.0,27.09,SW,217,9.0,11.0,95,0.00,,,-99.99,,2013-02-01 10:47:00,
2013-02-01 04:52:00,20.0,19.0,27.09,SW,231,9.0,12.0,95,0.00,,,-99.99,,2013-02-01 10:52:00,
2013-02-01 04:57:00,20.0,19.0,27.08,SW,234,9.0,11.0,95,0.00,,,-99.99,,2013-02-01 10:57:00,
2013-02-01 05:02:00,20.0,19.0,27.08,SW,224,9.0,11.0,95,0.00,,,-99.99,,2013-02-01 11:02:00,
2013-02-01 05:07:00,20.0,19.0,27.08,SW,231,8.0,10.0,95,0.00,,,-99.99,,2013-02-01 11:07:00,
2013-02-01 05:12:00,20.0,19.0,27.08,SW,224,8.0,10.0,95,0.00,,,-99.99,,2013-02-01 11:12:00,
2013-02-01 05:17:00,20.0,19.0,27.09,SW,233,7.0,10.0,95,0.00,,,-99.99,,2013-02-01 11:17:00,
2013-02-01 05:22:00,20.0,19.0,27.08,WSW,244,7.0,10.0,95,0.00,,,-99.99,,2013-02-01 11:22:00,
2013-02-01 05:27:00,20.0,19.0,27.08,SW,234,7.0,9.0,95,0.00,,,-99.99,,2013-02-01 11:27:00,
2013-02-01 05:32:00,20.0,19.0,27.08,SW,226,8.0,10.0,95,0.00,,,-99.99,,2013-02-01 11:32:00,
2013-02-01 05:37:00,20.0,19.0,27.08,WSW,250,7.0,10.0,95,0.00,,,-99.99,,2013-02-01 11:37:00,
2013-02-01 05:42:00,20.0,19.0,27.08,WSW,250,9.0,13.0,96,0.00,,,-99.99,,2013-02-01 11:42:00,
2013-02-01 05:47:00,20.0,19.0,27.08,West,261,10.0,14.0,94,0.00,,,-99.99,,2013-02-01 11:47:00,
2013-02-01 05:52:00,21.0,19.0,27.08,WSW,250,11.0,14.0,95,0.00,,,-99.99,,2013-02-01 11:52:00,
2013-02-01 05:57:00,21.0,19.0,27.07,WSW,252,10.0,14.0,95,0.00,,,-99.99,,2013-02-01 11:57:00,
2013-02-01 06:02:00,21.0,19.0,27.07,West,262,12.0,16.0,93,0.00,,,-99.99,,2013-02-01 12:02:00,
2013-02-01 06:07:00,21.0,19.0,27.07,WSW,241,11.0,14.0,95,0.00,,,-99.99,,2013-02-01 12:07:00,
2013-02-01 06:12:00,21.0,19.0,27.07,WSW,254,11.0,15.0,95,0.00,,,-99.99,,2013-02-01 12:12:00,
2013-02-01 06:17:00,21.0,19.0,27.07,WSW,251,11.0,15.0,95,0.00,,,-99.99,,2013-02-01 12:17:00,
2013-02-01 06:22:00,21.0,19.0,27.07,WSW,240,11.0,15.0,95,0.00,,,-99.99,,2013-02-01 12:22:00,
2013-02-01 06:27:00,21.0,19.0,27.07,WSW,241,10.0,14.0,95,0.00,,,-99.99,,2013-02-01 12:27:00,
2013-02-01 06:32:00,22.0,21.0,27.07,SW,231,11.0,14.0,94,0.00,,,-99.99,,2013-02-01 12:32:00,
2013-02-01 06:37:00,22.0,21.0,27.07,WSW,237,10.0,12.0,94,0.00,,,-99.99,,2013-02-01 12:37:00,
2013-02-01 06:42:00,22.0,21.0,27.07,WSW,238,10.0,13.0,94,0.00,,,-99.99,,2013-02-01 12:42:00,
2013-02-01 06:47:00,21.0,19.0,27.07,SW,233,8.0,11.0,94,0.00,,,-99.99,,2013-02-01 12:47:00,
2013-02-01 06:52:00,21.0,19.0,27.06,SW,234,9.0,11.0,94,0.00,,,-99.99,,2013-02-01 12:52:00,
2013-02-01 06:57:00,21.0,19.0,27.06,SW,235,10.0,13.0,95,0.00,,,-99.99,,2013-02-01 12:57:00,
2013-02-01 07:02:00,21.0,19.0,27.06,SW,231,10.0,13.0,95,0.00,,,-99.99,,2013-02-01 13:02:00,
2013-02-01 07:07:00,21.0,19.0,27.06,SW,233,11.0,14.0,95,0.00,,,-99.99,,2013-02-01 13:07:00,
2013-02-01 07:12:00,22.0,21.0,27.06,WSW,243,10.0,13.0,95,0.00,,,-99.99,,2013-02-01 13:12:00,
2013-02-01 07:17:00,21.0,19.0,27.06,WSW,237,10.0,14.0,95,0.00,,,-99.99,,2013-02-01 13:17:00,
2013-02-01 07:22:00,22.0,21.0,27.06,WSW,243,10.0,13.0,95,0.00,,,-99.99,,2013-02-01 13:22:00,
2013-02-01 07:27:00,22.0,21.0,27.06,WSW,255,10.0,13.0,95,0.00,,,-99.99,,2013-02-01 13:27:00,
2013-02-01 07:32:00,22.0,21.0,27.06,WSW,240,10.0,13.0,95,0.00,,,-99.99,,2013-02-01 13:32:00,
2013-02-01 07:37:00,23.0,21.0,27.05,WSW,245,10.0,13.0,95,0.00,,,-99.99,,2013-02-01 13:37:00,
2013-02-01 07:42:00,23.0,21.0,27.05,WSW,241,9.0,13.0,95,0.00,,,-99.99,,2013-02-01 13:42:00,
2013-02-01 07:47:00,23.0,21.0,27.05,SW,235,12.0,14.0,94,0.00,,,-99.99,,2013-02-01 13:47:00,
2013-02-01 07:52:00,23.0,21.0,27.05,WSW,241,10.0,14.0,95,0.00,,,-99.99,,2013-02-01 13:52:00,
2013-02-01 07:57:00,23.0,21.0,27.05,SW,234,9.0,12.0,94,0.00,,,-99.99,,2013-02-01 13:57:00,
2013-02-01 08:07:00,23.0,21.0,27.05,SW,221,10.0,12.0,94,0.00,,,-99.99,,2013-02-01 14:07:00,
2013-02-01 08:17:00,23.0,21.0,27.05,WSW,241,11.0,15.0,94,0.00,,,-99.99,,2013-02-01 14:17:00,
2013-02-01 08:22:00,23.0,21.0,27.05,SW,228,11.0,14.0,94,0.00,,,-99.99,,2013-02-01 14:22:00,
2013-02-01 08:27:00,23.0,21.0,27.05,SW,234,11.0,15.0,94,0.00,,,-99.99,,2013-02-01 14:27:00,
2013-02-01 08:32:00,23.0,21.0,27.05,WSW,237,10.0,12.0,94,0.00,,,-99.99,,2013-02-01 14:32:00,
2013-02-01 08:37:00,23.0,21.0,27.05,SW,235,10.0,13.0,94,0.00,,,-99.99,,2013-02-01 14:37:00,
2013-02-01 08:42:00,24.0,23.0,27.04,SW,233,9.0,13.0,95,0.00,,,-99.99,,2013-02-01 14:42:00,
2013-02-01 08:47:00,24.0,23.0,27.04,SW,235,10.0,14.0,95,0.00,,,-99.99,,2013-02-01 14:47:00,
2013-02-01 08:52:00,24.0,23.0,27.04,SW,235,11.0,15.0,94,0.00,,,-99.99,,2013-02-01 14:52:00,
2013-02-01 08:57:00,24.0,23.0,27.04,SW,230,11.0,15.0,94,0.00,,,-99.99,,2013-02-01 14:57:00,
2013-02-01 09:02:00,24.0,23.0,27.04,SW,230,11.0,15.0,94,0.00,,,-99.99,,2013-02-01 15:02:00,
2013-02-01 09:07:00,25.0,23.0,27.03,WSW,250,11.0,16.0,94,0.00,,,-99.99,,2013-02-01 15:07:00,
2013-02-01 09:12:00,25.0,23.0,27.04,WSW,243,15.0,18.0,93,0.00,,,-99.99,,2013-02-01 15:12:00,
2013-02-01 09:17:00,25.0,23.0,27.04,WSW,243,16.0,21.0,93,0.00,,,-99.99,,2013-02-01 15:17:00,
2013-02-01 09:22:00,26.0,25.0,27.03,WSW,243,13.0,17.0,93,0.00,,,-99.99,,2013-02-01 15:22:00,
2013-02-01 09:27:00,26.0,25.0,27.04,SW,230,13.0,17.0,94,0.00,,,-99.99,,2013-02-01 15:27:00,
2013-02-01 09:32:00,27.0,25.0,27.03,WSW,241,13.0,17.0,93,0.00,,,-99.99,,2013-02-01 15:32:00,
2013-02-01 09:37:00,27.0,25.0,27.03,WSW,237,12.0,17.0,94,0.00,,,-99.99,,2013-02-01 15:37:00,
2013-02-01 09:42:00,27.0,25.0,27.03,WSW,237,13.0,17.0,93,0.00,,,-99.99,,2013-02-01 15:42:00,
2013-02-01 09:47:00,28.0,27.0,27.03,WSW,244,12.0,17.0,94,0.00,,,-99.99,,2013-02-01 15:47:00,
2013-02-01 09:52:00,28.0,27.0,27.03,WSW,243,12.0,16.0,94,0.00,,,-99.99,,2013-02-01 15:52:00,
2013-02-01 09:57:00,28.0,27.0,27.03,SW,220,13.0,16.0,93,0.00,,,-99.99,,2013-02-01 15:57:00,
2013-02-01 10:02:00,29.0,27.0,27.02,WSW,245,13.0,17.0,93,0.00,,,-99.99,,2013-02-01 16:02:00,
2013-02-01 10:07:00,29.0,27.0,27.02,WSW,238,12.0,16.0,93,0.00,,,-99.99,,2013-02-01 16:07:00,
2013-02-01 10:12:00,29.0,27.0,27.02,SW,217,13.0,17.0,93,0.00,,,-99.99,,2013-02-01 16:12:00,
2013-02-01 10:17:00,29.0,27.0,27.02,WSW,237,13.0,19.0,92,0.00,,,-99.99,,2013-02-01 16:17:00,
2013-02-01 10:22:00,30.0,28.0,27.02,WSW,240,13.0,16.0,92,0.00,,,-99.99,,2013-02-01 16:22:00,
2013-02-01 10:27:00,30.0,28.0,27.02,SW,228,11.0,15.0,93,0.00,,,-99.99,,2013-02-01 16:27:00,
2013-02-01 10:32:00,31.0,28.0,27.02,SW,233,10.0,13.0,92,0.00,,,-99.99,,2013-02-01 16:32:00,
2013-02-01 10:37:00,31.0,28.0,27.02,WSW,244,11.0,14.0,91,0.00,,,-99.99,,2013-02-01 16:37:00,
2013-02-01 10:42:00,31.0,28.0,27.02,WSW,238,12.0,14.0,91,0.00,,,-99.99,,2013-02-01 16:42:00,
2013-02-01 10:47:00,31.0,28.0,27.01,WSW,247,12.0,15.0,91,0.00,,,-99.99,,2013-02-01 16:47:00,
2013-02-01 10:52:00,31.0,28.0,27.01,WSW,243,12.0,15.0,91,0.00,,,-99.99,,2013-02-01 16:52:00,
2013-02-01 10:57:00,32.0,30.0,27.01,WSW,241,12.0,16.0,90,0.00,,,-99.99,,2013-02-01 16:57:00,
2013-02-01 11:02:00,32.0,30.0,27.01,WSW,247,13.0,16.0,90,0.00,,,-99.99,,2013-02-01 17:02:00,
2013-02-01 11:07:00,33.0,30.0,27.02,WSW,247,12.0,16.0,90,0.00,,,-99.99,,2013-02-01 17:07:00,
2013-02-01 11:12:00,34.0,32.0,27.01,WSW,252,11.0,14.0,90,0.00,,,-99.99,,2013-02-01 17:12:00,
2013-02-01 11:17:00,34.0,32.0,27.01,WSW,257,11.0,15.0,89,0.00,,,-99.99,,2013-02-01 17:17:00,
2013-02-01 11:22:00,35.0,32.0,27.01,WSW,245,11.0,15.0,86,0.00,,,-99.99,,2013-02-01 17:22:00,
2013-02-01 11:27:00,36.0,32.0,27.01,WSW,238,14.0,17.0,85,0.00,,,-99.99,,2013-02-01 17:27:00,
2013-02-01 11:32:00,36.0,32.0,27.01,WSW,247,12.0,15.0,85,0.00,,,-99.99,,2013-02-01 17:32:00,
2013-02-01 11:37:00,37.0,32.0,27.00,WSW,248,11.0,15.0,83,0.00,,,-99.99,,2013-02-01 17:37:00,
2013-02-01 11:42:00,37.0,32.0,27.00,WSW,250,13.0,16.0,79,0.00,,,-99.99,,2013-02-01 17:42:00,
2013-02-01 11:47:00,38.0,32.0,27.00,WSW,257,12.0,14.0,80,0.00,,,-99.99,,2013-02-01 17:47:00,
2013-02-01 11:52:00,38.0,32.0,27.00,WSW,248,8.0,11.0,81,0.00,,,-99.99,,2013-02-01 17:52:00,
2013-02-01 11:57:00,39.0,34.0,26.99,SW,226,8.0,11.0,79,0.00,,,-99.99,,2013-02-01 17:57:00,
2013-02-01 12:02:00,40.0,34.0,26.99,WSW,237,8.0,9.0,78,0.00,,,-99.99,,2013-02-01 18:02:00,
2013-02-01 12:07:00,40.0,34.0,26.99,SW,235,9.0,11.0,77,0.00,,,-99.99,,2013-02-01 18:07:00,
2013-02-01 12:12:00,41.0,34.0,26.99,WSW,252,7.0,10.0,77,0.00,,,-99.99,,2013-02-01 18:12:00,
2013-02-01 12:17:00,42.0,36.0,26.99,WSW,238,8.0,10.0,76,0.00,,,-99.99,,2013-02-01 18:17:00,
2013-02-01 12:22:00,42.0,34.0,26.99,WSW,237,7.0,9.0,74,0.00,,,-99.99,,2013-02-01 18:22:00,
2013-02-01 12:27:00,42.0,34.0,26.99,WSW,255,6.0,7.0,74,0.00,,,-99.99,,2013-02-01 18:27:00,
2013-02-01 12:32:00,43.0,36.0,26.98,WSW,250,9.0,10.0,73,0.00,,,-99.99,,2013-02-01 18:32:00,
2013-02-01 12:37:00,44.0,36.0,26.98,West,265,8.0,11.0,72,0.00,,,-99.99,,2013-02-01 18:37:00,
2013-02-01 12:47:00,46.0,36.0,26.97,West,262,10.0,12.0,69,0.00,,,-99.99,,2013-02-01 18:47:00,
2013-02-01 12:52:00,46.0,36.0,26.97,SW,235,10.0,13.0,66,0.00,,,-99.99,,2013-02-01 18:52:00,
2013-02-01 12:57:00,47.0,36.0,26.96,WSW,255,11.0,13.0,66,0.00,,,-99.99,,2013-02-01 18:57:00,
2013-02-01 13:02:00,48.0,36.0,26.96,WSW,244,10.0,14.0,64,0.00,,,-99.99,,2013-02-01 19:02:00,
2013-02-01 13:07:00,47.0,36.0,26.96,WSW,237,11.0,15.0,64,0.00,,,-99.99,,2013-02-01 19:07:00,
2013-02-01 13:12:00,48.0,36.0,26.96,SW,228,9.0,12.0,63,0.00,,,-99.99,,2013-02-01 19:12:00,
2013-02-01 13:17:00,48.0,36.0,26.96,WSW,258,10.0,14.0,61,0.00,,,-99.99,,2013-02-01 19:17:00,
2013-02-01 13:22:00,48.0,36.0,26.96,WSW,254,8.0,10.0,63,0.00,,,-99.99,,2013-02-01 19:22:00,
2013-02-01 13:27:00,48.0,36.0,26.95,WSW,251,8.0,10.0,63,0.00,,,-99.99,,2013-02-01 19:27:00,
2013-02-01 13:32:00,48.0,36.0,26.95,SW,227,8.0,10.0,64,0.00,,,-99.99,,2013-02-01 19:32:00,
2013-02-01 13:37:00,49.0,37.0,26.94,WSW,247,8.0,11.0,63,0.00,,,-99.99,,2013-02-01 19:37:00,
2013-02-01 13:42:00,49.0,37.0,26.94,West,275,9.0,12.0,62,0.00,,,-99.99,,2013-02-01 19:42:00,
2013-02-01 13:47:00,50.0,37.0,26.94,WSW,244,8.0,11.0,61,0.00,,,-99.99,,2013-02-01 19:47:00,
2013-02-01 13:52:00,50.0,37.0,26.94,SW,235,9.0,12.0,60,0.00,,,-99.99,,2013-02-01 19:52:00,
2013-02-01 13:57:00,51.0,37.0,26.93,WSW,243,9.0,12.0,58,0.00,,,-99.99,,2013-02-01 19:57:00,
2013-02-01 14:02:00,51.0,37.0,26.93,WSW,243,7.0,9.0,59,0.00,,,-99.99,,2013-02-01 20:02:00,
2013-02-01 14:07:00,52.0,37.0,26.92,SW,231,8.0,12.0,56,0.00,,,-99.99,,2013-02-01 20:07:00,
2013-02-01 14:12:00,52.0,37.0,26.92,SW,220,7.0,10.0,57,0.00,,,-99.99,,2013-02-01 20:12:00,
2013-02-01 14:17:00,53.0,37.0,26.91,North,0,0.0,0.0,56,0.00,,,-99.99,,2013-02-01 20:17:00,
2013-02-01 14:22:00,53.0,37.0,26.91,North,0,0.0,0.0,57,0.00,,,-99.99,,2013-02-01 20:22:00,
2013-02-01 14:27:00,53.0,37.0,26.91,North,0,0.0,0.0,56,0.00,,,-99.99,,2013-02-01 20:27:00,
2013-02-01 14:32:00,54.0,37.0,26.91,WNW,292,7.0,9.0,55,0.00,,,-99.99,,2013-02-01 20:32:00,
2013-02-01 14:37:00,53.0,37.0,26.91,West,279,7.0,9.0,55,0.00,,,-99.99,,2013-02-01 20:37:00,
2013-02-01 14:42:00,53.0,37.0,26.91,WSW,250,7.0,9.0,55,0.00,,,-99.99,,2013-02-01 20:42:00,
2013-02-01 14:47:00,53.0,37.0,26.91,NW,317,13.0,18.0,54,0.00,,,-99.99,,2013-02-01 20:47:00,
2013-02-01 14:52:00,52.0,36.0,26.91,WNW,299,13.0,17.0,55,0.00,,,-99.99,,2013-02-01 20:52:00,
2013-02-01 14:57:00,52.0,36.0,26.90,WNW,303,13.0,15.0,55,0.00,,,-99.99,,2013-02-01 20:57:00,
2013-02-01 15:02:00,52.0,37.0,26.90,WNW,298,11.0,13.0,57,0.00,,,-99.99,,2013-02-01 21:02:00,
2013-02-01 15:07:00,52.0,36.0,26.90,WNW,293,12.0,14.0,55,0.00,,,-99.99,,2013-02-01 21:07:00,
2013-02-01 15:12:00,53.0,37.0,26.90,NW,323,13.0,15.0,56,0.00,,,-99.99,,2013-02-01 21:12:00,
2013-02-01 15:17:00,53.0,37.0,26.90,NW,320,12.0,14.0,56,0.00,,,-99.99,,2013-02-01 21:17:00,
2013-02-01 15:22:00,53.0,37.0,26.90,NW,314,15.0,18.0,55,0.00,,,-99.99,,2013-02-01 21:22:00,
2013-02-01 15:27:00,53.0,37.0,26.90,NW,316,17.0,22.0,57,0.00,,,-99.99,,2013-02-01 21:27:00,
2013-02-01 15:32:00,52.0,37.0,26.90,WNW,303,20.0,23.0,57,0.00,,,-99.99,,2013-02-01 21:32:00,
2013-02-01 15:37:00,52.0,37.0,26.90,NW,326,19.0,22.0,57,0.00,,,-99.99,,2013-02-01 21:37:00,
2013-02-01 15:42:00,52.0,37.0,26.90,NW,307,16.0,19.0,57,0.00,,,-99.99,,2013-02-01 21:42:00,
2013-02-01 15:47:00,52.0,37.0,26.90,NW,326,17.0,19.0,58,0.00,,,-99.99,,2013-02-01 21:47:00,
2013-02-01 15:52:00,52.0,37.0,26.90,NW,326,17.0,21.0,58,0.00,,,-99.99,,2013-02-01 21:52:00,
2013-02-01 15:57:00,52.0,37.0,26.90,NW,320,17.0,20.0,58,0.00,,,-99.99,,2013-02-01 21:57:00,
2013-02-01 16:02:00,52.0,37.0,26.90,NW,319,16.0,18.0,58,0.00,,,-99.99,,2013-02-01 22:02:00,
2013-02-01 16:07:00,52.0,37.0,26.90,NNW,330,17.0,20.0,58,0.00,,,-99.99,,2013-02-01 22:07:00,
2013-02-01 16:12:00,52.0,37.0,26.90,NNW,341,16.0,18.0,58,0.00,,,-99.99,,2013-02-01 22:12:00,
2013-02-01 16:17:00,52.0,37.0,26.90,NNW,336,16.0,19.0,58,0.00,,,-99.99,,2013-02-01 22:17:00,
2013-02-01 16:22:00,52.0,37.0,26.90,NW,319,15.0,17.0,59,0.00,,,-99.99,,2013-02-01 22:22:00,
2013-02-01 16:27:00,52.0,37.0,26.90,NNW,333,14.0,16.0,59,0.00,,,-99.99,,2013-02-01 22:27:00,
2013-02-01 16:37:00,51.0,37.0,26.91,NNW,341,12.0,14.0,60,0.00,,,-99.99,,2013-02-01 22:37:00,
2013-02-01 16:42:00,50.0,37.0,26.91,NW,319,13.0,15.0,60,0.00,,,-99.99,,2013-02-01 22:42:00,
2013-02-01 16:47:00,50.0,37.0,26.91,NNW,331,12.0,14.0,61,0.00,,,-99.99,,2013-02-01 22:47:00,
2013-02-01 16:52:00,50.0,37.0,26.91,NNW,331,9.0,11.0,62,0.00,,,-99.99,,2013-02-01 22:52:00,
2013-02-01 16:57:00,49.0,37.0,26.91,NNW,337,10.0,11.0,62,0.00,,,-99.99,,2013-02-01 22:57:00,
2013-02-01 17:02:00,49.0,37.0,26.91,NNW,330,9.0,11.0,63,0.00,,,-99.99,,2013-02-01 23:02:00,
2013-02-01 17:07:00,49.0,37.0,26.91,NNW,327,9.0,9.0,63,0.00,,,-99.99,,2013-02-01 23:07:00,
2013-02-01 17:12:00,48.0,36.0,26.92,NNW,327,9.0,9.0,64,0.00,,,-99.99,,2013-02-01 23:12:00,
2013-02-01 17:17:00,48.0,37.0,26.92,NW,326,8.0,9.0,65,0.00,,,-99.99,,2013-02-01 23:17:00,
2013-02-01 17:22:00,47.0,36.0,26.93,NNW,329,9.0,10.0,66,0.00,,,-99.99,,2013-02-01 23:22:00,
2013-02-01 17:27:00,47.0,37.0,26.93,NNW,336,11.0,14.0,67,0.00,,,-99.99,,2013-02-01 23:27:00,
2013-02-01 17:32:00,47.0,37.0,26.93,NW,321,13.0,14.0,67,0.00,,,-99.99,,2013-02-01 23:32:00,
2013-02-01 17:37:00,47.0,37.0,26.94,NW,324,21.0,25.0,67,0.00,,,-99.99,,2013-02-01 23:37:00,
2013-02-01 17:42:00,47.0,37.0,26.94,NW,317,18.0,21.0,70,0.00,,,-99.99,,2013-02-01 23:42:00,
2013-02-01 17:47:00,47.0,39.0,26.94,NW,320,19.0,21.0,72,0.00,,,-99.99,,2013-02-01 23:47:00,
2013-02-01 17:52:00,47.0,39.0,26.95,NNW,334,18.0,24.0,74,0.00,,,-99.99,,2013-02-01 23:52:00,
2013-02-01 17:57:00,46.0,39.0,26.95,NW,307,18.0,22.0,76,0.00,,,-99.99,,2013-02-01 23:57:00,
2013-02-01 18:02:00,46.0,39.0,26.95,NW,313,14.0,16.0,77,0.00,,,-99.99,,2013-02-02 00:02:00,
2013-02-01 18:07:00,45.0,39.0,26.95,NW,312,12.0,14.0,78,0.00,,,-99.99,,2013-02-02 00:07:00,
2013-02-01 18:12:00,45.0,39.0,26.95,NW,323,12.0,16.0,79,0.00,,,-99.99,,2013-02-02 00:12:00,
2013-02-01 18:17:00,45.0,39.0,26.95,NW,313,11.0,12.0,80,0.00,,,-99.99,,2013-02-02 00:17:00,
2013-02-01 18:22:00,44.0,39.0,26.95,NW,319,11.0,14.0,81,0.00,,,-99.99,,2013-02-02 00:22:00,
2013-02-01 18:27:00,44.0,39.0,26.95,NW,309,11.0,12.0,81,0.00,,,-99.99,,2013-02-02 00:27:00,
2013-02-01 18:32:00,44.0,39.0,26.95,NW,313,8.0,9.0,82,0.00,,,-99.99,,2013-02-02 00:32:00,
2013-02-01 18:37:00,43.0,37.0,26.95,NW,313,7.0,8.0,83,0.00,,,-99.99,,2013-02-02 00:37:00,
2013-02-01 18:42:00,43.0,39.0,26.96,NNW,331,8.0,9.0,84,0.00,,,-99.99,,2013-02-02 00:42:00,
2013-02-01 18:47:00,43.0,39.0,26.96,NNW,329,8.0,9.0,84,0.00,,,-99.99,,2013-02-02 00:47:00,
2013-02-01 18:52:00,43.0,39.0,26.96,NW,326,9.0,10.0,85,0.00,,,-99.99,,2013-02-02 00:52:00,
2013-02-01 18:57:00,43.0,39.0,26.96,NW,321,8.0,9.0,86,0.00,,,-99.99,,2013-02-02 00:57:00,
2013-02-01 19:02:00,42.0,37.0,26.96,NW,314,8.0,9.0,86,0.00,,,-99.99,,2013-02-02 01:02:00,
2013-02-01 19:07:00,42.0,39.0,26.96,NW,324,8.0,8.0,87,0.00,,,-99.99,,2013-02-02 01:07:00,
2013-02-01 19:12:00,42.0,39.0,26.97,NW,305,7.0,8.0,87,0.00,,,-99.99,,2013-02-02 01:12:00,
2013-02-01 19:17:00,42.0,39.0,26.97,NW,307,8.0,9.0,88,0.00,,,-99.99,,2013-02-02 01:17:00,
2013-02-01 19:22:00,42.0,39.0,26.97,NW,310,9.0,10.0,88,0.00,,,-99.99,,2013-02-02 01:22:00,
2013-02-01 19:27:00,42.0,39.0,26.98,NW,309,10.0,11.0,89,0.00,,,-99.99,,2013-02-02 01:27:00,
2013-02-01 19:32:00,42.0,39.0,26.98,NW,316,10.0,12.0,89,0.00,,,-99.99,,2013-02-02 01:32:00,
2013-02-01 19:37:00,42.0,39.0,26.98,NW,323,11.0,12.0,89,0.00,,,-99.99,,2013-02-02 01:37:00,
2013-02-01 19:42:00,42.0,39.0,26.98,NW,316,12.0,14.0,90,0.00,,,-99.99,,2013-02-02 01:42:00,
2013-02-01 19:47:00,42.0,39.0,26.98,NW,317,13.0,15.0,90,0.00,,,-99.99,,2013-02-02 01:47:00,
2013-02-01 19:52:00,42.0,39.0,26.98,NW,314,14.0,16.0,90,0.00,,,-99.99,,2013-02-02 01:52:00,
2013-02-01 19:57:00,42.0,39.0,26.98,NW,321,14.0,17.0,90,0.00,,,-99.99,,2013-02-02 01:57:00,
2013-02-01 20:02:00,41.0,37.0,26.98,NW,319,13.0,14.0,90,0.00,,,-99.99,,2013-02-02 02:02:00,
2013-02-01 20:07:00,41.0,39.0,26.99,NW,320,10.0,12.0,91,0.00,,,-99.99,,2013-02-02 02:07:00,
2013-02-01 20:12:00,40.0,37.0,26.99,NNW,327,10.0,11.0,91,0.00,,,-99.99,,2013-02-02 02:12:00,
2013-02-01 20:17:00,40.0,37.0,26.99,NNW,336,10.0,12.0,91,0.00,,,-99.99,,2013-02-02 02:17:00,
2013-02-01 20:22:00,40.0,37.0,26.99,NNW,331,11.0,12.0,91,0.00,,,-99.99,,2013-02-02 02:22:00,
2013-02-01 20:27:00,40.0,37.0,27.00,NNW,333,10.0,13.0,92,0.00,,,-99.99,,2013-02-02 02:27:00,
2013-02-01 20:32:00,39.0,37.0,27.00,NNW,327,10.0,11.0,92,0.00,,,-99.99,,2013-02-02 02:32:00,
2013-02-01 20:37:00,39.0,37.0,27.00,NNW,327,9.0,10.0,92,0.00,,,-99.99,,2013-02-02 02:37:00,
2013-02-01 20:42:00,39.0,37.0,27.00,NW,326,9.0,10.0,92,0.00,,,-99.99,,2013-02-02 02:42:00,
2013-02-01 20:47:00,39.0,37.0,27.00,NNW,327,9.0,10.0,93,0.00,,,-99.99,,2013-02-02 02:47:00,
2013-02-01 20:52:00,39.0,37.0,27.00,NW,326,8.0,10.0,93,0.00,,,-99.99,,2013-02-02 02:52:00,
2013-02-01 20:57:00,39.0,37.0,27.01,NW,316,8.0,9.0,93,0.00,,,-99.99,,2013-02-02 02:57:00,
2013-02-01 21:02:00,39.0,37.0,27.01,NW,314,8.0,10.0,93,0.00,,,-99.99,,2013-02-02 03:02:00,
2013-02-01 21:07:00,39.0,37.0,27.02,NW,312,8.0,10.0,93,0.00,,,-99.99,,2013-02-02 03:07:00,
2013-02-01 21:12:00,39.0,37.0,27.02,NW,319,9.0,11.0,93,0.00,,,-99.99,,2013-02-02 03:12:00,
2013-02-01 21:17:00,39.0,37.0,27.02,NW,320,10.0,11.0,93,0.00,,,-99.99,,2013-02-02 03:17:00,
2013-02-01 21:22:00,39.0,37.0,27.02,NW,326,10.0,12.0,94,0.00,,,-99.99,,2013-02-02 03:22:00,
2013-02-01 21:27:00,39.0,37.0,27.02,NW,313,8.0,9.0,94,0.00,,,-99.99,,2013-02-02 03:27:00,
2013-02-01 21:32:00,39.0,37.0,27.02,WNW,303,7.0,9.0,94,0.00,,,-99.99,,2013-02-02 03:32:00,
2013-02-01 21:37:00,39.0,37.0,27.03,NW,310,7.0,8.0,94,0.00,,,-99.99,,2013-02-02 03:37:00,
2013-02-01 21:42:00,39.0,37.0,27.03,WNW,300,8.0,9.0,94,0.00,,,-99.99,,2013-02-02 03:42:00,
2013-02-01 21:47:00,39.0,37.0,27.03,WNW,302,8.0,9.0,94,0.00,,,-99.99,,2013-02-02 03:47:00,
2013-02-01 21:52:00,39.0,37.0,27.03,WNW,290,6.0,7.0,94,0.00,,,-99.99,,2013-02-02 03:52:00,
2013-02-01 21:57:00,39.0,37.0,27.03,WNW,295,6.0,7.0,94,0.00,,,-99.99,,2013-02-02 03:57:00,
2013-02-01 22:02:00,38.0,36.0,27.03,WNW,298,8.0,9.0,94,0.00,,,-99.99,,2013-02-02 04:02:00,
2013-02-01 22:07:00,37.0,36.0,27.03,WNW,293,9.0,9.0,94,0.00,,,-99.99,,2013-02-02 04:07:00,
2013-02-01 22:12:00,37.0,36.0,27.04,WNW,299,9.0,10.0,94,0.00,,,-99.99,,2013-02-02 04:12:00,
2013-02-01 22:17:00,36.0,36.0,27.04,NW,306,10.0,11.0,95,0.00,,,-99.99,,2013-02-02 04:17:00,
2013-02-01 22:22:00,35.0,34.0,27.04,WNW,300,9.0,10.0,95,0.00,,,-99.99,,2013-02-02 04:22:00,
2013-02-01 22:27:00,35.0,34.0,27.05,WNW,296,8.0,10.0,95,0.00,,,-99.99,,2013-02-02 04:27:00,
2013-02-01 22:32:00,35.0,34.0,27.05,WNW,292,9.0,10.0,95,0.00,,,-99.99,,2013-02-02 04:32:00,
2013-02-01 22:37:00,35.0,34.0,27.05,WNW,298,9.0,11.0,95,0.00,,,-99.99,,2013-02-02 04:37:00,
2013-02-01 22:42:00,34.0,34.0,27.05,WNW,302,9.0,10.0,96,0.00,,,-99.99,,2013-02-02 04:42:00,
2013-02-01 22:47:00,34.0,34.0,27.05,WNW,303,8.0,10.0,96,0.00,,,-99.99,,2013-02-02 04:47:00,
2013-02-01 22:52:00,34.0,34.0,27.06,NW,309,8.0,10.0,96,0.00,,,-99.99,,2013-02-02 04:52:00,
2013-02-01 22:57:00,33.0,32.0,27.06,NW,313,8.0,9.0,96,0.00,,,-99.99,,2013-02-02 04:57:00,
2013-02-01 23:03:00,33.0,32.0,27.06,NW,314,8.0,8.0,96,0.00,,,-99.99,,2013-02-02 05:03:00,
2013-02-01 23:07:00,33.0,32.0,27.05,NW,320,7.0,8.0,96,0.00,,,-99.99,,2013-02-02 05:07:00,
2013-02-01 23:12:00,32.0,30.0,27.05,NNW,330,8.0,9.0,96,0.00,,,-99.99,,2013-02-02 05:12:00,
2013-02-01 23:17:00,32.0,32.0,27.05,NNW,336,8.0,9.0,97,0.00,,,-99.99,,2013-02-02 05:17:00,
2013-02-01 23:22:00,32.0,32.0,27.06,NNW,327,8.0,10.0,97,0.00,,,-99.99,,2013-02-02 05:22:00,
2013-02-01 23:27:00,32.0,32.0,27.06,NW,324,9.0,10.0,97,0.00,,,-99.99,,2013-02-02 05:27:00,
2013-02-01 23:32:00,32.0,32.0,27.06,NNW,330,10.0,11.0,97,0.00,,,-99.99,,2013-02-02 05:32:00,
2013-02-01 23:37:00,32.0,32.0,27.06,NNW,327,10.0,11.0,97,0.00,,,-99.99,,2013-02-02 05:37:00,
2013-02-01 23:42:00,33.0,32.0,27.06,NW,314,10.0,11.0,98,0.00,,,-99.99,,2013-02-02 05:42:00,
2013-02-01 23:47:00,33.0,32.0,27.06,NW,314,10.0,12.0,98,0.00,,,-99.99,,2013-02-02 05:47:00,
2013-02-01 23:52:00,33.0,32.0,27.06,NW,309,10.0,12.0,97,0.00,,,-99.99,,2013-02-02 05:52:00,
2013-02-01 23:57:00,33.0,32.0,27.06,NW,309,9.0,10.0,97,0.00,,,-99.99,,2013-02-02 05:57:00,